Simultaneous Nadir Overpasses (SNOs) Predictions

Prediction of SNOs between GOES-15 and TERRA Satellite Orbit:

Table of predicted SNOs for the next 14.0 days since TLE Epoch: 2/2/2013
Index Date Time (GOES-15) GOES-15 Lat,Lon TERRA Lat,Lon Distance(km) Time Diff (sec)
1 02/03/2013 19:15:23 0.05,-134.62 -0.73,-131.13 397.71 80
2 02/04/2013 07:36:47 -0.05,-134.67 -0.37,-136.32 187.26 80
3 02/06/2013 07:21:54 -0.05,-134.75 0.22,-133.35 158.29 80
4 02/06/2013 19:43:09 0.05,-134.74 0.83,-138.51 428.76 80
5 02/08/2013 19:30:56 0.05,-134.82 0.23,-135.55 83.52 80
6 02/10/2013 19:21:25 0.05,-134.90 -0.43,-132.59 261.72 80
7 02/11/2013 07:42:48 -0.05,-134.95 -0.66,-137.79 322.72 80
8 02/13/2013 07:27:55 -0.05,-135.02 -0.04,-134.82 22.26 80
9 02/15/2013 07:15:43 -0.05,-135.09 0.64,-131.87 366.41 80
10 02/15/2013 19:36:58 0.05,-135.07 0.47,-137.02 221.69 80




NCC Satellite Simultaneous Nadir Overpasses (SNOs) Prediction Service
